Miscellaneous Local Product
Issued by NWS North Platte, NE

Home | Current Version | Previous Version | Text Only | Print | Product List | Glossary On
Versions: 1 2 3 4 5 6 7 8 9 10 11 12 13 14 15 16 17 18 19 20 21 22 23 24 25 26 27 28 29 30 31 32 33 34 35 36 37 38 39 40 41 42 43 44 45 46 47 48 49 50
000
AXUS43 KLBF 290810
MISLBF


WESTERN AND NORTH CENTRAL NEBRASKA HOURLY WEATHER ROUNDUP
NATIONAL WEATHER SERVICE NORTH PLATTE NE
300 AM CDT TUE JUL 29 2014

***STATIONS NOT REPORTING VARIABLES SUCH AS SKY/WEATHER OR
PRESSURE ARE PROVIDED BY THE NEBRASKA DEPARTMENT OF
ROADS...RAWS...AND APRS NETWORKS...AND ARE NOT UNDER
NATIONAL WEATHER SERVICE QUALITY CONTROL***

...OBSERVATIONS IN AND NEAR THE EASTERN PANHANDLE OF NEBRASKA...

CITY           SKY/WX    TMP DP  RH WIND       PRES   REMARKS
PINE RIDGE     MOCLDY    64  52  64 E8        30.24F
CHADRON        CLEAR     62  53  72 NE8       30.23S
ALLIANCE       PTCLDY    61  57  87 E9        30.23S
SIDNEY         PTCLDY    59  50  72 E6        30.24S
WHITECLAY        N/A     65  51  60 E7          N/A
RUSHVILLE        N/A     60  52  72 E14         N/A
GORDON           N/A     64  56  75 E10         N/A
CRESCENT LAKE    N/A     62  57  85 E7          N/A
LISCO            N/A     68  59  73 E12         N/A
BIG SPRINGS      N/A     64  58  82 CALM        N/A
$$

...OBSERVATIONS IN NORTH CENTRAL NEBRASKA...

CITY           SKY/WX    TMP DP  RH WIND       PRES   REMARKS
VALENTINE      PTCLDY    58  51  78 E6        30.25F
THEDFORD       PTCLDY    58  55  89 CALM      30.25S
AINSWORTH      CLEAR     56  54  94 E5        30.26S
O`NEILL        CLEAR     54  50  88 CALM      30.24S
ORD            MOCLDY    58  56  93 CALM      30.24S THUNDER
BROKEN BOW     PTCLDY    61  57  87 E6        30.24F
BROWNLEE         N/A     64  55  72 E7          N/A
SPRINGVIEW       N/A     56  52  88 CALM        N/A
DUNNING          N/A     63  61  94 E3          N/A
ROSE             N/A     60  59  96 E5          N/A
NEWPORT          N/A     53  53  99 S3          N/A
SARGENT          N/A     61  57  88 CALM        N/A
COMSTOCK         N/A     66  64  93 CALM        N/A
CHAMBERS         N/A     54  51  90 CALM        N/A
EWING            N/A     54  50  87 CALM        N/A
$$

...OBSERVATIONS IN SOUTHWEST NEBRASKA AND FAR NORTHEAST COLORADO...

CITY           SKY/WX    TMP DP  RH WIND       PRES   REMARKS
WRAY             N/A     70  58  66 SW7       30.22S
HOLYOKE        FAIR      61  55  82 SE5       30.21F
IMPERIAL       MOCLDY    62  57  83 SE9       30.21F
OGALLALA       CLEAR     61  57  88 E9        30.22S
NORTH PLATTE   CLEAR     58  56  93 SE5       30.23F
MCCOOK         MOCLDY    64  57  78 E9        30.21F
LEXINGTON      CLEAR     63  58  83 SE7       30.24S
PAXTON           N/A     62  58  88 CALM        N/A
SUTHERLAND       N/A     57  55  92 E6          N/A
BRADY            N/A     59  55  88 CALM        N/A
CALLAWAY         N/A     59  57  94 SE7         N/A
$$

...SOME WEATHER OBSERVATIONS FROM AROUND THE REGION...

CITY           SKY/WX    TMP DP  RH WIND       PRES   REMARKS
DENVER         PTCLDY    60  55  83 S8        30.26F
LARAMIE        MOCLDY    58  51  78 SE7       30.37F
CHEYENNE       CLEAR     58  52  80 SW7       30.31F
SCOTTSBLUFF    PTCLDY    65  59  81 E8        30.21F
RAPID CITY     CLEAR     53  49  86 CALM      30.28S
PIERRE         PTCLDY    54  51  90 E6        30.22S
WINNER         FAIR      60  50  69 S8        30.23F
SIOUX FALLS    CLEAR     53  52  96 CALM      30.22S
OMAHA          CLEAR     59  56  89 N5        30.19F
GRAND ISLAND   LGT RAIN  63  58  83 CALM      30.24R
KANSAS CITY    CLEAR     63  57  81 CALM      30.16F
WICHITA        PTCLDY    69  56  62 E7        30.18S
HAYS           MOCLDY    66  54  63 E9        30.21S
LIBERAL        MOCLDY    66  55  68 S7        30.25F
GOODLAND       MOCLDY    63  60  90 S6        30.24F
$$



USA.gov is the U.S. government's official web portal to all federal, state and local government web resources and services.